Council Bluffs, IA

7:54 AM CDT on July 27, 2017 (GMT -0500)
Council Bluffs Municipal

Weather History for KCBF - November, 2013

Change the Weather History Date:

Friday, November 1, 2013

  Actual Average Record
Temperature  
Mean Temperature 49 °F -  
Max Temperature 57 °F 53 °F 77 °F (2001)
Min Temperature 41 °F 36 °F 21 °F (1996)
Degree Days  
Heating Degree Days 16    
Moisture  
Dew Point 39 °F    
Average Humidity 77    
Maximum Humidity 93    
Minimum Humidity 48    
Precipitation  
Precipitation 0.00 in - - ()
Sea Level Pressure  
Sea Level Pressure 29.76 in    
Wind  
Wind Speed 10 mph (WNW)    
Max Wind Speed 17 mph    
Max Gust Speed 30 mph    
Visibility 10 miles    
Events      
Averages and records for this station are not official NWS values.
T = Trace of Precipitation, MM = Missing Value Source: NWS Daily Summary

Daily Weather History Graph

Daily Weather History Graph

Search for Another Location

Airport or City:

Trip Planner

Search our weather history database for the weather conditions in past years. The results will help you decide how hot, cold, wet, or windy it might be!

Date:

Astronomy

Nov. 01, 2013 Rise Set
Actual Time 7:54 AM CDT 6:17 PM CDT
Civil Twilight 7:25 AM CDT 6:46 PM CDT
Nautical Twilight 6:53 AM CDT 7:19 PM CDT
Astronomical Twilight 6:21 AM CDT 7:51 PM CDT
Moon 5:47 AM CDT (11/1) 5:12 PM CDT (11/1)
Length of Visible Light 11h 20m
Length of Day
10h 23m
Waning Crescent, 4% of the Moon is Illuminated
Nov 1
Waning Crescent
Nov 3
New
Nov 9
First Quarter
Nov 17
Full
Nov 25
Last Quarter

Hourly Weather History & Observations

Time (CDT) Temp. Windchill Dew Point Humidity Pressure Visibility Wind Dir Wind Speed Gust Speed Precip Events Conditions
12:15 AM 44.6 °F 39.7 °F 37.4 °F 76% 29.57 in 10.0 mi WNW 9.2 mph - N/A   Clear
12:35 AM 44.6 °F 39.2 °F 37.4 °F 76% 29.58 in 10.0 mi West 10.4 mph - N/A   Clear
12:55 AM 42.8 °F 37.0 °F 37.4 °F 81% 29.58 in 10.0 mi WNW 10.4 mph - N/A   Clear
1:15 AM 42.8 °F 38.0 °F 37.4 °F 81% 29.58 in 10.0 mi WNW 8.1 mph 13.8 mph N/A   Clear
1:35 AM 42.8 °F 37.5 °F 37.4 °F 81% 29.58 in 10.0 mi WNW 9.2 mph - N/A   Clear
1:55 AM 42.8 °F 37.5 °F 37.4 °F 81% 29.60 in 10.0 mi WNW 9.2 mph - N/A   Clear
2:15 AM 42.8 °F 37.5 °F 37.4 °F 81% 29.60 in 10.0 mi West 9.2 mph - N/A   Partly Cloudy
2:35 AM 41.0 °F 34.7 °F 37.4 °F 87% 29.61 in 10.0 mi West 10.4 mph - N/A   Scattered Clouds
2:55 AM 41.0 °F 35.2 °F 37.4 °F 87% 29.61 in 10.0 mi West 9.2 mph - N/A   Partly Cloudy
3:15 AM 41.0 °F 35.8 °F 37.4 °F 87% 29.62 in 10.0 mi West 8.1 mph - N/A   Clear
3:35 AM 41.0 °F 35.8 °F 37.4 °F 87% 29.62 in 10.0 mi WNW 8.1 mph - N/A   Clear
3:55 AM 41.0 °F 35.8 °F 37.4 °F 87% 29.62 in 10.0 mi WNW 8.1 mph - N/A   Clear
4:15 AM 41.0 °F 35.2 °F 39.2 °F 93% 29.63 in 10.0 mi West 9.2 mph - N/A   Clear
4:35 AM 41.0 °F 36.4 °F 39.2 °F 93% 29.63 in 10.0 mi WNW 6.9 mph - N/A   Clear
4:55 AM 41.0 °F 34.7 °F 39.2 °F 93% 29.64 in 10.0 mi West 10.4 mph - N/A   Clear
5:15 AM 41.0 °F 34.3 °F 39.2 °F 93% 29.66 in 10.0 mi WNW 11.5 mph - N/A   Scattered Clouds
5:35 AM 41.0 °F 35.8 °F 39.2 °F 93% 29.67 in 10.0 mi West 8.1 mph - N/A   Overcast
5:55 AM 41.0 °F 36.4 °F 39.2 °F 93% 29.67 in 10.0 mi NW 6.9 mph - N/A   Scattered Clouds
6:15 AM 41.0 °F 37.1 °F 39.2 °F 93% 29.67 in 10.0 mi NW 5.8 mph - N/A   Mostly Cloudy
6:35 AM 41.0 °F 37.1 °F 39.2 °F 93% 29.68 in 10.0 mi WNW 5.8 mph - N/A   Overcast
6:55 AM 41.0 °F 38.0 °F 39.2 °F 93% 29.69 in 10.0 mi WNW 4.6 mph - N/A   Overcast
7:15 AM 41.0 °F 37.1 °F 39.2 °F 93% 29.69 in 10.0 mi WNW 5.8 mph - N/A   Overcast
7:35 AM 41.0 °F 37.1 °F 39.2 °F 93% 29.69 in 10.0 mi WNW 5.8 mph - N/A   Overcast
7:55 AM 41.0 °F 38.0 °F 39.2 °F 93% 29.70 in 10.0 mi West 4.6 mph - N/A   Overcast
8:15 AM 41.0 °F 36.4 °F 39.2 °F 93% 29.71 in 10.0 mi West 6.9 mph - N/A   Overcast
8:35 AM 42.8 °F 38.0 °F 39.2 °F 87% 29.73 in 10.0 mi West 8.1 mph - N/A   Overcast
8:55 AM 42.8 °F 38.0 °F 39.2 °F 87% 29.74 in 10.0 mi WNW 8.1 mph - N/A   Overcast
9:15 AM 42.8 °F 38.0 °F 39.2 °F 87% 29.74 in 10.0 mi West 8.1 mph - N/A   Scattered Clouds
9:35 AM 44.6 °F 39.7 °F 41.0 °F 87% 29.75 in 10.0 mi West 9.2 mph - N/A   Scattered Clouds
9:55 AM 44.6 °F 38.4 °F 41.0 °F 87% 29.75 in 10.0 mi WNW 12.7 mph - N/A   Partly Cloudy
10:15 AM 46.4 °F 41.1 °F 41.0 °F 81% 29.76 in 10.0 mi NW 11.5 mph - N/A   Clear
10:35 AM 48.2 °F - 41.0 °F 76% 29.76 in 10.0 mi NW 12.7 mph 19.6 mph N/A   Clear
10:55 AM 50.0 °F - 41.0 °F 71% 29.77 in 10.0 mi WNW 10.4 mph 17.3 mph N/A   Scattered Clouds
11:15 AM 51.8 °F - 41.0 °F 67% 29.77 in 10.0 mi NW 15.0 mph - N/A   Mostly Cloudy
11:35 AM 50.0 °F - 41.0 °F 71% 29.77 in 10.0 mi WNW 11.5 mph 21.9 mph N/A   Mostly Cloudy
11:55 AM 51.8 °F - 41.0 °F 67% 29.78 in 10.0 mi WNW 10.4 mph 18.4 mph N/A   Scattered Clouds
12:15 PM 53.6 °F - 41.0 °F 62% 29.78 in 10.0 mi WNW 11.5 mph 21.9 mph N/A   Clear
12:35 PM 55.4 °F - 42.8 °F 63% 29.78 in 10.0 mi WNW 9.2 mph 18.4 mph N/A   Clear
12:55 PM 55.4 °F - 39.2 °F 54% 29.78 in 10.0 mi NW 13.8 mph 25.3 mph N/A   Clear
1:15 PM 55.4 °F - 37.4 °F 51% 29.78 in 10.0 mi NW 16.1 mph 24.2 mph N/A   Clear
1:35 PM 57.2 °F - 37.4 °F 48% 29.78 in 10.0 mi NNW 13.8 mph 21.9 mph N/A   Clear
1:55 PM 57.2 °F - 37.4 °F 48% 29.79 in 10.0 mi NW 15.0 mph 21.9 mph N/A   Scattered Clouds
2:15 PM 57.2 °F - 37.4 °F 48% 29.79 in 10.0 mi NW 13.8 mph 25.3 mph N/A   Partly Cloudy
2:35 PM 57.2 °F - 37.4 °F 48% 29.78 in 10.0 mi NW 12.7 mph 20.7 mph N/A   Scattered Clouds
2:55 PM 57.2 °F - 37.4 °F 48% 29.78 in 10.0 mi WNW 12.7 mph 20.7 mph N/A   Scattered Clouds
3:15 PM 57.2 °F - 37.4 °F 48% 29.78 in 10.0 mi NNW 12.7 mph 21.9 mph N/A   Mostly Cloudy
4:55 PM 53.6 °F - 37.4 °F 54% 29.80 in 10.0 mi NW 8.1 mph 13.8 mph N/A   Mostly Cloudy
5:15 PM 53.6 °F - 39.2 °F 58% 29.81 in 10.0 mi NW 6.9 mph - N/A   Mostly Cloudy
5:35 PM 53.6 °F - 39.2 °F 58% 29.81 in 10.0 mi NW 8.1 mph - N/A   Mostly Cloudy
5:55 PM 50.0 °F - 39.2 °F 66% 29.84 in 10.0 mi NNW 15.0 mph 29.9 mph N/A   Overcast
6:15 PM 48.2 °F - 39.2 °F 71% 29.85 in 10.0 mi NW 11.5 mph 17.3 mph N/A   Mostly Cloudy
6:35 PM 48.2 °F - 39.2 °F 71% 29.86 in 10.0 mi NW 8.1 mph 18.4 mph N/A   Scattered Clouds
6:55 PM 46.4 °F 40.7 °F 39.2 °F 76% 29.86 in 10.0 mi WNW 12.7 mph - N/A   Partly Cloudy
7:15 PM 46.4 °F 41.9 °F 39.2 °F 76% 29.87 in 10.0 mi WNW 9.2 mph - N/A   Clear
7:35 PM 46.4 °F 41.1 °F 39.2 °F 76% 29.88 in 10.0 mi WNW 11.5 mph - N/A   Partly Cloudy
7:55 PM 46.4 °F 41.9 °F 39.2 °F 76% 29.89 in 10.0 mi WNW 9.2 mph 16.1 mph N/A   Partly Cloudy
8:15 PM 46.4 °F 40.4 °F 41.0 °F 81% 29.90 in 10.0 mi NW 13.8 mph 21.9 mph N/A   Scattered Clouds
8:35 PM 46.4 °F 39.5 °F 39.2 °F 76% 29.90 in 10.0 mi NW 17.3 mph 26.5 mph N/A   Partly Cloudy
8:55 PM 46.4 °F 40.1 °F 39.2 °F 76% 29.92 in 10.0 mi NNW 15.0 mph 21.9 mph N/A   Mostly Cloudy
9:15 PM 46.4 °F 40.4 °F 39.2 °F 76% 29.92 in 10.0 mi NW 13.8 mph 23.0 mph N/A   Overcast
9:35 PM 46.4 °F 40.1 °F 39.2 °F 76% 29.93 in 10.0 mi NNW 15.0 mph - N/A   Overcast
9:55 PM 46.4 °F 40.7 °F 39.2 °F 76% 29.93 in 10.0 mi NW 12.7 mph 20.7 mph N/A   Overcast
10:15 PM 46.4 °F 41.1 °F 39.2 °F 76% 29.94 in 10.0 mi NW 11.5 mph 19.6 mph N/A   Overcast
10:35 PM 46.4 °F 40.7 °F 41.0 °F 81% 29.94 in 10.0 mi NW 12.7 mph 20.7 mph N/A   Overcast
10:55 PM 46.4 °F 39.8 °F 41.0 °F 81% 29.95 in 10.0 mi NW 16.1 mph 24.2 mph N/A   Overcast
11:15 PM 46.4 °F 40.4 °F 41.0 °F 81% 29.96 in 10.0 mi NW 13.8 mph 25.3 mph N/A   Overcast
11:35 PM 46.4 °F 40.7 °F 41.0 °F 81% 29.96 in 10.0 mi NW 12.7 mph 23.0 mph N/A   Overcast
11:55 PM 46.4 °F 41.1 °F 41.0 °F 81% 29.96 in 10.0 mi NW 11.5 mph 20.7 mph N/A   Overcast